Torna al catalogo

STARLINK-31554

AttivoComunicazioniVLEO
NORAD 59195·PAYLOAD·🇺🇸 United States

Lanciato Mar 10, 2024 da Cape Canaveral Space Force Station

Loading…

Prossimi Passaggi (prossime 24 ore)

TLE

AggiornatoSource: CelesTrak SupGP

Epoca: Sep 15, 2026, 02:46 UTC

1 59195C 24045T   26258.11576389  .00027578  00000+0  99863-3 0  2581
2 59195  43.0004 102.9547 0001328 280.3844 288.9066 15.27572738    10

Traccia STARLINK-31554 in tempo reale con AllMySat

Download on the App Store